FW8419 Weather Reports


Display with metric or nautical units.
time (UTC)temp
F
wind
direction
speed
MPH
gust
MPH
rain 1hr
in
rain 24hr
in
rain mn
in
humidity
%
barometer
mb
20260504192122 77 245 5.0 16.0 0.00 0.00 0.00 39 1009.1
20260504191144 77 248 5.0 18.0 0.00 0.00 0.00 40 1009.2
20260504190143 76 256 5.0 21.0 0.00 0.00 0.00 42 1009.3
20260504185124 76 269 4.0 14.0 0.00 0.00 0.00 43 1009.1
20260504184123 76 268 5.0 18.0 0.00 0.00 0.00 46 1009.1
20260504183124 76 242 4.0 13.0 0.00 0.00 0.00 47 1009.1
20260504182123 75 261 3.0 14.0 0.00 0.00 0.00 49 1009.1
20260504181122 74 272 3.0 11.0 0.00 0.00 0.00 50 1009.2
20260504180123 74 251 3.0 13.0 0.00 0.00 0.00 50 1009.2
20260504175122 74 250 4.0 11.0 0.00 0.00 0.00 47 1009.2
20260504174145 73 262 3.0 11.0 0.00 0.00 0.00 48 1009.3
20260504173124 73 259 3.0 11.0 0.00 0.00 0.00 49 1009.2
20260504172122 72 256 3.0 16.0 0.00 0.00 0.00 48 1009.3
20260504171124 72 251 3.0 11.0 0.00 0.00 0.00 48 1009.4
20260504170122 71 279 1.0 6.0 0.00 0.00 0.00 48 1009.4
20260504160122 66 73 2.0 6.0 0.00 0.00 0.00 55 1009.9
20260504151122 64 89 1.0 6.0 0.00 0.00 0.00 61 1009.8
20260504150122 63 92 0.0 2.0 0.00 0.00 0.00 68 1009.7
20260504141145 59 143 1.0 5.0 0.00 0.00 0.00 74 1009.5
20260504140124 58 0 0.0 0.0 0.00 0.00 0.00 76 1009.5
20260504130123 55 143 0.0 2.0 0.00 0.00 0.00 80 1009.1
20260504120123 56 143 0.0 2.0 0.00 0.00 0.00 79 1009.1
20260504110124 57 143 0.0 3.0 0.00 0.00 0.00 75 1009.1
20260504100122 58 0 0.0 0.0 0.00 0.00 0.00 77 1008.9
20260504090125 59 0 0.0 0.0 0.00 0.00 0.00 75 1008.9
20260504081144 60 0 0.0 0.0 0.00 0.00 0.00 74 1008.8
20260504080124 60 0 0.0 0.0 0.00 0.00 0.00 74 1008.7
20260504070144 63 123 0.0 2.0 0.00 0.00 0.00 65 1008.5
20260504060144 64 0 0.0 0.0 0.00 0.00 0.00 62 1008.4
20260504050123 68 0 0.0 0.0 0.00 0.00 0.00 53 1008.4
20260504045123 69 0 0.0 0.0 0.00 0.00 0.00 51 1008.4
20260504044122 69 0 0.0 0.0 0.00 0.00 0.00 50 1008.4
20260504043143 70 131 0.0 2.0 0.00 0.00 0.00 50 1008.3
20260504042123 70 128 0.0 3.0 0.00 0.00 0.00 48 1008.3
20260504041123 71 0 0.0 0.0 0.00 0.00 0.00 46 1008.3
20260504040122 72 0 0.0 2.0 0.00 0.00 0.00 45 1008.2
20260504035123 72 238 0.0 5.0 0.00 0.00 0.00 44 1008.1
20260504034144 73 256 0.0 3.0 0.00 0.00 0.00 43 1008.1
20260504033123 74 277 1.0 5.0 0.00 0.00 0.00 42 1008.1
20260504032122 74 261 1.0 5.0 0.00 0.00 0.00 41 1008.0
20260504031123 75 255 2.0 10.0 0.00 0.00 0.00 40 1008.1
20260504030122 76 263 2.0 6.0 0.00 0.00 0.00 39 1008.1
20260504025122 77 270 2.0 6.0 0.00 0.00 0.00 39 1008.2
20260504024124 78 260 2.0 8.0 0.00 0.00 0.00 38 1008.2
20260504023124 79 277 2.0 10.0 0.00 0.00 0.00 37 1008.2
20260504022122 81 283 2.0 6.0 0.00 0.00 0.00 36 1008.3
20260504021123 82 309 2.0 10.0 0.00 0.00 0.00 31 1008.4
20260504020145 81 313 2.0 8.0 0.00 0.00 0.00 32 1008.4
20260504015124 81 310 1.0 6.0 0.00 0.00 0.00 33 1008.5
20260504014122 82 279 2.0 10.0 0.00 0.00 0.00 34 1008.7
20260504013143 82 284 3.0 13.0 0.00 0.00 0.00 33 1008.7
20260504012145 83 326 2.0 11.0 0.00 0.00 0.00 32 1008.9
20260504011123 83 301 3.0 11.0 0.00 0.00 0.00 34 1009.0
20260504010122 83 295 3.0 11.0 0.00 0.00 0.00 31 1009.0
20260504005124 83 268 3.0 13.0 0.00 0.00 0.00 32 1009.1
20260504004143 83 297 3.0 11.0 0.00 0.00 0.00 35 1009.2
20260504003143 83 302 3.0 11.0 0.00 0.00 0.00 36 1009.3
20260504002122 83 300 2.0 10.0 0.00 0.00 0.00 35 1009.4
20260504001124 82 286 4.0 11.0 0.00 0.00 0.00 35 1009.4
20260504000122 82 263 4.0 13.0 0.00 0.00 0.00 35 1009.5
20260503235124 82 285 4.0 14.0 0.00 0.00 0.00 35 1009.6
20260503234124 81 270 4.0 14.0 0.00 0.00 0.00 35 1009.7
20260503233124 81 265 4.0 16.0 0.00 0.00 0.00 35 1009.9
20260503232122 81 279 4.0 14.0 0.00 0.00 0.00 35 1010.0
20260503231122 81 259 5.0 18.0 0.00 0.00 0.00 36 1010.2
20260503230145 81 277 5.0 14.0 0.00 0.00 0.00 36 1010.3
20260503225124 81 270 4.0 13.0 0.00 0.00 0.00 36 1010.3
20260503224122 81 272 4.0 14.0 0.00 0.00 0.00 37 1010.4
20260503223145 81 280 5.0 14.0 0.00 0.00 0.00 37 1010.5
20260503222124 80 272 4.0 13.0 0.00 0.00 0.00 38 1010.8
20260503221124 80 269 4.0 14.0 0.00 0.00 0.00 38 1010.8
20260503220143 80 275 5.0 14.0 0.00 0.00 0.00 38 1011.0
20260503215122 80 275 5.0 16.0 0.00 0.00 0.00 38 1011.2
20260503214122 79 274 4.0 16.0 0.00 0.00 0.00 40 1011.3
20260503213124 79 272 5.0 16.0 0.00 0.00 0.00 40 1011.3
20260503212124 79 270 4.0 18.0 0.00 0.00 0.00 41 1011.3
20260503211122 79 259 5.0 18.0 0.00 0.00 0.00 43 1011.4
20260503210124 79 269 3.0 13.0 0.00 0.00 0.00 44 1011.6
20260503205122 78 278 4.0 18.0 0.00 0.00 0.00 45 1011.8
20260503204123 78 275 3.0 13.0 0.00 0.00 0.00 45 1011.9
20260503203124 78 270 5.0 16.0 0.00 0.00 0.00 45 1012.0
20260503202122 77 262 5.0 16.0 0.00 0.00 0.00 46 1012.0
20260503201124 77 260 4.0 14.0 0.00 0.00 0.00 47 1012.2
20260503200123 77 251 3.0 11.0 0.00 0.00 0.00 48 1012.3
20260503195124 77 264 3.0 16.0 0.00 0.00 0.00 49 1012.4
20260503194122 76 262 3.0 13.0 0.00 0.00 0.00 48 1012.5
20260503193124 76 269 2.0 11.0 0.00 0.00 0.00 46 1012.7